QPF
0.08 0.03 0.01 0.01 0.03 0.04 0.02 0.02 0.02 0.00 0.00 0.00 0.00 0.00 0.00 0.00 0.01 0.02 0.01 0.00 0.00 0.00 0.00 0.00 0.01 0.02 0.03 0.03 0.02 0.02 0.02 0.02 0.02 0.02 0.02 0.02 0.03 0.03 0.02 0.02 0.02 0.03 0.04 0.03 0.04 0.04 0.03 0.02 0.02
0.04 0.04 0.01 0.02 0.04 0.04 0.02 0.02 0.02 0.00 0.00 0.00 0.00 0.00 0.00 0.00 0.01 0.01 0.01 0.01 0.01 0.00 0.01 0.01 0.01 0.02 0.02 0.02 0.02 0.02 0.02 0.02 0.02 0.03 0.03 0.03 0.03 0.04 0.03 0.03 0.02 0.03 0.04 0.04 0.04 0.03 0.02 0.01 0.01
0.03 0.03 0.03 0.02 0.04 0.04 0.03 0.03 0.03 0.00 0.00 0.00 0.00 0.00 0.00 0.00 0.01 0.01 0.01 0.01 0.01 0.01 0.01 0.01 0.01 0.03 0.03 0.03 0.03 0.03 0.03 0.03 0.02 0.03 0.03 0.03 0.04 0.04 0.04 0.04 0.04 0.04 0.04 0.04 0.05 0.03 0.01 0.01 0.01
0.03 0.03 0.03 0.03 0.04 0.04 0.03 0.03 0.02 0.00 0.00 0.00 0.00 0.00 0.00 0.01 0.01 0.01 0.01 0.02 0.02 0.02 0.01 0.02 0.02 0.03 0.03 0.04 0.03 0.02 0.02 0.02 0.02 0.02 0.02 0.03 0.03 0.04 0.04 0.03 0.04 0.03 0.03 0.03 0.03 0.02 0.01 0.01 0.01
0.03 0.04 0.04 0.03 0.03 0.03 0.03 0.03 0.01 0.00 0.00 0.00 0.00 0.00 0.01 0.01 0.01 0.01 0.01 0.02 0.02 0.03 0.02 0.03 0.03 0.04 0.04 0.04 0.04 0.04 0.02 0.02 0.02 0.02 0.02 0.03 0.03 0.03 0.03 0.03 0.04 0.03 0.03 0.03 0.03 0.02 0.01 0.01 0.01
0.04 0.04 0.04 0.04 0.04 0.03 0.02 0.02 0.01 0.00 0.00 0.00 0.00 0.00 0.01 0.01 0.01 0.01 0.01 0.02 0.03 0.03 0.03 0.03 0.04 0.04 0.04 0.05 0.05 0.05 0.04 0.03 0.02 0.02 0.02 0.02 0.02 0.03 0.04 0.04 0.04 0.05 0.04 0.02 0.03 0.03 0.02 0.02 0.01
0.03 0.03 0.03 0.05 0.04 0.03 0.02 0.01 0.00 0.00 0.00 0.00 0.00 0.01 0.01 0.01 0.01 0.01 0.01 0.02 0.03 0.04 0.05 0.03 0.04 0.06 0.07 0.06 0.06 0.06 0.05 0.05 0.04 0.03 0.03 0.03 0.03 0.04 0.04 0.05 0.05 0.05 0.04 0.02 0.01 0.01 0.01 0.01 0.01
0.03 0.03 0.03 0.05 0.05 0.03 0.02 0.01 0.00 0.00 0.00 0.00 0.01 0.01 0.01 0.01 0.01 0.01 0.01 0.02 0.03 0.04 0.05 0.04 0.04 0.06 0.09 0.08 0.07 0.06 0.06 0.06 0.06 0.05 0.04 0.03 0.03 0.04 0.05 0.05 0.04 0.04 0.03 0.03 0.01 0.01 0.01 0.01 0.01
0.02 0.04 0.04 0.04 0.05 0.03 0.02 0.02 0.01 0.01 0.01 0.02 0.01 0.01 0.01 0.02 0.02 0.01 0.02 0.03 0.04 0.05 0.06 0.05 0.05 0.05 0.07 0.07 0.07 0.08 0.08 0.06 0.05 0.04 0.03 0.03 0.04 0.05 0.06 0.04 0.03 0.03 0.03 0.02 0.02 0.01 0.01 0.00 0.00
0.02 0.03 0.04 0.04 0.04 0.03 0.03 0.02 0.02 0.02 0.02 0.03 0.03 0.01 0.01 0.01 0.02 0.02 0.02 0.03 0.04 0.06 0.07 0.06 0.05 0.04 0.05 0.06 0.07 0.09 0.08 0.07 0.05 0.04 0.03 0.03 0.04 0.07 0.06 0.05 0.03 0.02 0.02 0.02 0.01 0.01 0.00 0.00 0.00
0.03 0.03 0.03 0.03 0.03 0.02 0.03 0.02 0.02 0.02 0.02 0.03 0.03 0.01 0.00 0.01 0.02 0.02 0.02 0.02 0.03 0.05 0.07 0.07 0.06 0.05 0.06 0.06 0.07 0.09 0.09 0.07 0.05 0.04 0.03 0.03 0.04 0.06 0.06 0.05 0.03 0.02 0.02 0.02 0.01 0.01 0.00 0.00 0.00
0.05 0.03 0.02 0.03 0.02 0.02 0.02 0.02 0.02 0.02 0.02 0.02 0.02 0.01 0.01 0.01 0.02 0.03 0.04 0.03 0.04 0.06 0.07 0.08 0.08 0.09 0.09 0.08 0.08 0.08 0.10 0.09 0.07 0.06 0.04 0.03 0.04 0.05 0.07 0.08 0.05 0.03 0.02 0.02 0.02 0.01 0.00 0.00 0.00
0.04 0.03 0.03 0.03 0.02 0.01 0.01 0.02 0.02 0.02 0.03 0.03 0.03 0.01 0.01 0.01 0.02 0.04 0.05 0.04 0.04 0.06 0.07 0.09 0.10 0.10 0.10 0.09 0.08 0.07 0.08 0.08 0.08 0.07 0.06 0.05 0.04 0.06 0.09 0.11 0.08 0.05 0.03 0.02 0.02 0.02 0.01 0.00 0.00
0.03 0.02 0.02 0.03 0.02 0.01 0.01 0.01 0.01 0.02 0.03 0.04 0.03 0.03 0.03 0.02 0.02 0.04 0.05 0.05 0.05 0.07 0.09 0.10 0.11 0.09 0.08 0.07 0.07 0.06 0.06 0.07 0.08 0.07 0.06 0.05 0.04 0.04 0.07 0.10 0.08 0.05 0.04 0.03 0.03 0.02 0.02 0.01 0.01
0.03 0.02 0.02 0.03 0.02 0.01 0.01 0.00 0.00 0.01 0.03 0.04 0.02 0.03 0.03 0.02 0.02 0.04 0.05 0.05 0.05 0.07 0.10 0.12 0.14 0.12 0.09 0.07 0.06 0.06 0.05 0.05 0.07 0.08 0.07 0.06 0.05 0.04 0.05 0.07 0.08 0.06 0.05 0.05 0.04 0.03 0.02 0.02 0.02
0.03 0.03 0.03 0.03 0.02 0.01 0.01 0.01 0.00 0.01 0.02 0.04 0.03 0.02 0.02 0.01 0.02 0.05 0.05 0.06 0.05 0.06 0.09 0.12 0.15 0.14 0.10 0.09 0.08 0.07 0.06 0.05 0.06 0.08 0.09 0.07 0.05 0.04 0.04 0.06 0.08 0.07 0.06 0.06 0.04 0.03 0.02 0.02 0.01
0.03 0.03 0.02 0.02 0.02 0.01 0.02 0.01 0.01 0.01 0.02 0.04 0.03 0.02 0.02 0.01 0.02 0.03 0.04 0.05 0.05 0.06 0.07 0.11 0.15 0.15 0.12 0.09 0.10 0.08 0.06 0.06 0.06 0.08 0.09 0.10 0.07 0.05 0.06 0.06 0.07 0.07 0.07 0.07 0.05 0.02 0.02 0.01 0.01
0.02 0.01 0.01 0.01 0.01 0.01 0.02 0.01 0.01 0.02 0.02 0.03 0.03 0.03 0.02 0.02 0.01 0.02 0.03 0.05 0.05 0.06 0.06 0.08 0.13 0.16 0.14 0.11 0.12 0.10 0.07 0.08 0.08 0.08 0.08 0.09 0.12 0.10 0.09 0.08 0.07 0.07 0.07 0.07 0.06 0.02 0.01 0.01 0.01
0.01 0.01 0.01 0.01 0.01 0.01 0.02 0.01 0.02 0.03 0.01 0.01 0.02 0.03 0.03 0.03 0.02 0.02 0.03 0.05 0.07 0.07 0.06 0.06 0.09 0.13 0.15 0.13 0.13 0.11 0.08 0.06 0.07 0.08 0.08 0.09 0.10 0.13 0.11 0.09 0.07 0.08 0.08 0.08 0.06 0.03 0.02 0.02 0.02
0.01 0.01 0.01 0.01 0.01 0.02 0.02 0.02 0.02 0.02 0.02 0.01 0.01 0.02 0.02 0.02 0.02 0.02 0.03 0.05 0.07 0.07 0.07 0.06 0.07 0.11 0.15 0.13 0.12 0.11 0.08 0.06 0.05 0.05 0.07 0.09 0.11 0.14 0.15 0.12 0.10 0.11 0.11 0.11 0.10 0.06 0.04 0.03 0.03
0.01 0.02 0.02 0.01 0.02 0.02 0.02 0.02 0.02 0.02 0.02 0.01 0.01 0.02 0.03 0.02 0.02 0.02 0.03 0.04 0.05 0.07 0.08 0.08 0.08 0.11 0.15 0.15 0.12 0.12 0.10 0.07 0.07 0.06 0.05 0.08 0.10 0.12 0.12 0.12 0.11 0.12 0.13 0.12 0.12 0.08 0.06 0.05 0.04
0.01 0.02 0.02 0.02 0.03 0.04 0.02 0.03 0.03 0.04 0.02 0.01 0.00 0.01 0.03 0.01 0.01 0.02 0.03 0.04 0.04 0.04 0.06 0.06 0.08 0.10 0.15 0.17 0.12 0.10 0.09 0.07 0.05 0.04 0.04 0.06 0.07 0.07 0.08 0.10 0.10 0.10 0.11 0.10 0.10 0.09 0.05 0.04 0.04
0.02 0.03 0.03 0.03 0.04 0.05 0.03 0.05 0.04 0.03 0.02 0.01 0.01 0.01 0.01 0.01 0.01 0.01 0.02 0.05 0.04 0.04 0.03 0.04 0.06 0.08 0.11 0.16 0.13 0.11 0.10 0.08 0.06 0.05 0.04 0.05 0.06 0.06 0.06 0.07 0.09 0.10 0.10 0.11 0.11 0.11 0.07 0.04 0.03
0.03 0.04 0.04 0.03 0.03 0.03 0.02 0.03 0.03 0.02 0.04 0.03 0.03 0.02 0.01 0.01 0.01 0.01 0.02 0.04 0.05 0.05 0.05 0.05 0.06 0.07 0.10 0.15 0.17 0.12 0.09 0.07 0.05 0.05 0.05 0.06 0.05 0.04 0.05 0.05 0.06 0.08 0.09 0.10 0.10 0.09 0.07 0.05 0.05
0.03 0.04 0.05 0.04 0.03 0.02 0.01 0.01 0.02 0.03 0.04 0.05 0.06 0.03 0.02 0.01 0.01 0.02 0.02 0.04 0.05 0.06 0.07 0.07 0.06 0.07 0.09 0.11 0.14 0.10 0.07 0.06 0.04 0.04 0.04 0.04 0.04 0.03 0.03 0.03 0.04 0.05 0.07 0.09 0.10 0.09 0.08 0.06 0.06
0.01 0.02 0.03 0.04 0.02 0.01 0.01 0.02 0.03 0.05 0.05 0.05 0.05 0.03 0.03 0.02 0.01 0.01 0.02 0.05 0.07 0.08 0.08 0.08 0.07 0.07 0.08 0.09 0.10 0.08 0.07 0.05 0.04 0.03 0.03 0.03 0.03 0.02 0.02 0.03 0.03 0.03 0.04 0.06 0.07 0.08 0.07 0.06 0.05
0.01 0.02 0.02 0.03 0.02 0.02 0.01 0.02 0.02 0.03 0.03 0.04 0.04 0.03 0.05 0.03 0.02 0.02 0.03 0.06 0.10 0.09 0.09 0.08 0.07 0.07 0.07 0.08 0.08 0.07 0.06 0.05 0.04 0.04 0.04 0.03 0.03 0.02 0.02 0.03 0.03 0.03 0.04 0.04 0.06 0.06 0.06 0.05 0.05
0.01 0.02 0.02 0.03 0.03 0.02 0.01 0.01 0.03 0.02 0.03 0.04 0.05 0.05 0.06 0.07 0.04 0.03 0.04 0.06 0.10 0.08 0.07 0.08 0.07 0.07 0.08 0.08 0.08 0.07 0.06 0.06 0.05 0.04 0.04 0.03 0.02 0.02 0.02 0.03 0.04 0.04 0.04 0.04 0.05 0.05 0.05 0.05 0.04
0.00 0.01 0.02 0.02 0.02 0.03 0.02 0.02 0.04 0.03 0.04 0.05 0.06 0.08 0.10 0.11 0.08 0.06 0.06 0.06 0.09 0.10 0.08 0.08 0.07 0.07 0.07 0.07 0.08 0.08 0.08 0.06 0.06 0.05 0.05 0.03 0.02 0.02 0.02 0.02 0.02 0.03 0.04 0.04 0.04 0.05 0.05 0.05 0.04
0.00 0.00 0.01 0.03 0.02 0.02 0.02 0.03 0.04 0.03 0.03 0.05 0.07 0.09 0.11 0.11 0.12 0.10 0.10 0.08 0.07 0.09 0.10 0.09 0.08 0.08 0.10 0.08 0.08 0.09 0.09 0.08 0.07 0.06 0.05 0.04 0.03 0.02 0.03 0.03 0.03 0.03 0.04 0.04 0.04 0.04 0.05 0.05 0.04
MSLP
1010.16 1010.25 1010.43 1010.66 1010.94 1011.21 1011.46 1011.66 1011.81 1011.92 1012.04 1012.18 1012.41 1012.74 1013.18 1013.70 1014.26 1014.79 1015.22 1015.52 1015.65 1015.62 1015.48 1015.25 1014.98 1014.72 1014.47 1014.20 1013.91 1013.55 1013.10 1012.58 1011.99 1011.40 1010.85 1010.42 1010.12 1009.98 1009.98 1010.09 1010.26 1010.47 1010.70 1010.94 1011.21 1011.52 1011.88 1012.30 1012.76
1010.38 1010.50 1010.68 1010.89 1011.11 1011.31 1011.49 1011.63 1011.75 1011.88 1012.05 1012.29 1012.63 1013.06 1013.58 1014.14 1014.68 1015.16 1015.51 1015.71 1015.75 1015.66 1015.48 1015.24 1015.00 1014.77 1014.55 1014.32 1014.04 1013.69 1013.24 1012.72 1012.14 1011.56 1011.02 1010.59 1010.27 1010.09 1010.02 1010.04 1010.12 1010.23 1010.38 1010.57 1010.81 1011.14 1011.55 1012.03 1012.55
1010.59 1010.74 1010.91 1011.08 1011.24 1011.36 1011.46 1011.54 1011.63 1011.76 1011.98 1012.29 1012.71 1013.23 1013.80 1014.39 1014.93 1015.36 1015.66 1015.79 1015.78 1015.65 1015.45 1015.22 1015.00 1014.79 1014.59 1014.37 1014.10 1013.75 1013.32 1012.80 1012.24 1011.68 1011.17 1010.74 1010.40 1010.17 1010.03 1009.96 1009.93 1009.95 1010.02 1010.16 1010.38 1010.72 1011.17 1011.72 1012.31
1010.75 1010.90 1011.05 1011.18 1011.27 1011.32 1011.35 1011.38 1011.45 1011.59 1011.84 1012.21 1012.69 1013.25 1013.87 1014.47 1015.00 1015.40 1015.66 1015.76 1015.73 1015.60 1015.40 1015.20 1015.00 1014.81 1014.62 1014.41 1014.14 1013.79 1013.35 1012.85 1012.31 1011.77 1011.27 1010.84 1010.49 1010.22 1010.01 1009.85 1009.73 1009.66 1009.66 1009.76 1009.97 1010.33 1010.82 1011.42 1012.07
1010.81 1010.95 1011.07 1011.15 1011.19 1011.19 1011.17 1011.17 1011.23 1011.39 1011.67 1012.07 1012.59 1013.18 1013.81 1014.40 1014.92 1015.30 1015.54 1015.64 1015.62 1015.51 1015.36 1015.19 1015.03 1014.87 1014.69 1014.47 1014.18 1013.82 1013.37 1012.87 1012.34 1011.82 1011.33 1010.90 1010.54 1010.23 1009.96 1009.73 1009.53 1009.40 1009.35 1009.41 1009.62 1010.00 1010.52 1011.16 1011.86
1010.77 1010.88 1010.97 1011.01 1011.01 1010.98 1010.95 1010.95 1011.02 1011.20 1011.51 1011.93 1012.47 1013.06 1013.67 1014.25 1014.74 1015.11 1015.34 1015.45 1015.47 1015.41 1015.32 1015.21 1015.09 1014.96 1014.79 1014.56 1014.26 1013.87 1013.40 1012.89 1012.36 1011.84 1011.36 1010.93 1010.55 1010.21 1009.90 1009.61 1009.36 1009.18 1009.09 1009.13 1009.34 1009.72 1010.26 1010.92 1011.65
1010.68 1010.75 1010.80 1010.81 1010.79 1010.76 1010.74 1010.77 1010.87 1011.08 1011.41 1011.85 1012.38 1012.96 1013.54 1014.07 1014.53 1014.88 1015.11 1015.25 1015.31 1015.31 1015.29 1015.24 1015.18 1015.08 1014.92 1014.68 1014.36 1013.94 1013.45 1012.92 1012.38 1011.85 1011.37 1010.94 1010.55 1010.19 1009.84 1009.51 1009.22 1008.99 1008.87 1008.89 1009.09 1009.47 1010.01 1010.68 1011.42
1010.60 1010.63 1010.64 1010.64 1010.61 1010.60 1010.61 1010.68 1010.82 1011.07 1011.42 1011.86 1012.36 1012.90 1013.43 1013.92 1014.34 1014.66 1014.90 1015.06 1015.16 1015.23 1015.27 1015.29 1015.28 1015.20 1015.05 1014.81 1014.46 1014.02 1013.51 1012.96 1012.41 1011.89 1011.41 1010.98 1010.57 1010.19 1009.81 1009.44 1009.10 1008.83 1008.66 1008.65 1008.82 1009.18 1009.72 1010.38 1011.12
1010.61 1010.59 1010.57 1010.55 1010.54 1010.55 1010.60 1010.71 1010.90 1011.17 1011.52 1011.95 1012.42 1012.91 1013.39 1013.82 1014.19 1014.49 1014.73 1014.91 1015.05 1015.17 1015.27 1015.33 1015.35 1015.30 1015.15 1014.90 1014.54 1014.08 1013.56 1013.01 1012.47 1011.96 1011.49 1011.05 1010.64 1010.23 1009.82 1009.39 1008.99 1008.64 1008.41 1008.33 1008.46 1008.78 1009.30 1009.96 1010.71
1010.73 1010.67 1010.62 1010.59 1010.59 1010.63 1010.71 1010.86 1011.07 1011.35 1011.69 1012.08 1012.51 1012.94 1013.36 1013.75 1014.09 1014.37 1014.61 1014.81 1014.98 1015.13 1015.26 1015.35 1015.39 1015.34 1015.20 1014.94 1014.57 1014.11 1013.60 1013.06 1012.54 1012.06 1011.60 1011.18 1010.76 1010.32 1009.84 1009.34 1008.84 1008.40 1008.06 1007.90 1007.95 1008.22 1008.72 1009.38 1010.16
1010.94 1010.85 1010.78 1010.74 1010.75 1010.80 1010.90 1011.06 1011.26 1011.52 1011.83 1012.18 1012.55 1012.93 1013.31 1013.66 1013.98 1014.27 1014.51 1014.73 1014.92 1015.09 1015.23 1015.33 1015.37 1015.32 1015.17 1014.91 1014.54 1014.10 1013.61 1013.11 1012.63 1012.18 1011.75 1011.34 1010.90 1010.42 1009.87 1009.26 1008.63 1008.05 1007.58 1007.30 1007.25 1007.47 1007.94 1008.63 1009.45
1011.20 1011.08 1011.00 1010.95 1010.96 1011.00 1011.10 1011.23 1011.40 1011.61 1011.86 1012.14 1012.46 1012.80 1013.15 1013.49 1013.82 1014.13 1014.40 1014.64 1014.86 1015.04 1015.18 1015.28 1015.31 1015.24 1015.08 1014.82 1014.46 1014.04 1013.59 1013.13 1012.70 1012.29 1011.90 1011.49 1011.03 1010.48 1009.84 1009.10 1008.32 1007.57 1006.94 1006.52 1006.36 1006.52 1006.99 1007.71 1008.62
1011.41 1011.28 1011.18 1011.13 1011.12 1011.15 1011.21 1011.29 1011.38 1011.51 1011.67 1011.88 1012.15 1012.46 1012.81 1013.18 1013.55 1013.90 1014.23 1014.51 1014.76 1014.96 1015.10 1015.19 1015.20 1015.12 1014.96 1014.69 1014.35 1013.96 1013.54 1013.13 1012.74 1012.37 1012.00 1011.59 1011.09 1010.47 1009.72 1008.84 1007.89 1006.96 1006.15 1005.57 1005.31 1005.41 1005.88 1006.67 1007.69
1011.50 1011.36 1011.26 1011.20 1011.18 1011.17 1011.17 1011.16 1011.15 1011.16 1011.22 1011.36 1011.57 1011.87 1012.24 1012.67 1013.11 1013.55 1013.96 1014.31 1014.60 1014.83 1014.99 1015.07 1015.07 1014.99 1014.82 1014.56 1014.23 1013.86 1013.47 1013.09 1012.73 1012.37 1012.01 1011.58 1011.04 1010.34 1009.48 1008.45 1007.33 1006.23 1005.24 1004.52 1004.15 1004.20 1004.69 1005.56 1006.72
1011.42 1011.28 1011.20 1011.14 1011.10 1011.04 1010.95 1010.83 1010.70 1010.58 1010.52 1010.57 1010.74 1011.05 1011.47 1011.97 1012.52 1013.07 1013.58 1014.02 1014.38 1014.65 1014.83 1014.93 1014.94 1014.86 1014.69 1014.45 1014.13 1013.78 1013.40 1013.02 1012.66 1012.29 1011.90 1011.44 1010.84 1010.07 1009.10 1007.95 1006.68 1005.42 1004.29 1003.43 1002.97 1002.98 1003.49 1004.45 1005.75
1011.18 1011.07 1011.01 1010.97 1010.91 1010.80 1010.61 1010.36 1010.08 1009.82 1009.65 1009.61 1009.75 1010.07 1010.55 1011.15 1011.82 1012.49 1013.11 1013.65 1014.09 1014.42 1014.64 1014.77 1014.80 1014.75 1014.60 1014.37 1014.07 1013.71 1013.32 1012.93 1012.53 1012.13 1011.69 1011.17 1010.52 1009.67 1008.62 1007.38 1006.01 1004.63 1003.38 1002.42 1001.88 1001.86 1002.39 1003.42 1004.83
1010.84 1010.78 1010.76 1010.75 1010.68 1010.51 1010.22 1009.84 1009.40 1008.99 1008.69 1008.57 1008.68 1009.02 1009.57 1010.28 1011.07 1011.86 1012.60 1013.23 1013.74 1014.13 1014.41 1014.58 1014.66 1014.64 1014.53 1014.33 1014.04 1013.68 1013.26 1012.82 1012.37 1011.90 1011.40 1010.81 1010.10 1009.21 1008.11 1006.81 1005.39 1003.94 1002.62 1001.58 1000.98 1000.92 1001.45 1002.52 1004.02
1010.49 1010.50 1010.55 1010.57 1010.50 1010.27 1009.88 1009.36 1008.77 1008.21 1007.79 1007.59 1007.66 1008.03 1008.64 1009.44 1010.34 1011.24 1012.07 1012.78 1013.36 1013.81 1014.14 1014.36 1014.50 1014.54 1014.48 1014.31 1014.04 1013.67 1013.23 1012.73 1012.20 1011.65 1011.07 1010.43 1009.67 1008.76 1007.65 1006.35 1004.91 1003.44 1002.09 1001.01 1000.36 1000.24 1000.73 1001.80 1003.32
1010.19 1010.30 1010.44 1010.52 1010.45 1010.17 1009.67 1009.01 1008.26 1007.55 1007.01 1006.73 1006.78 1007.16 1007.84 1008.71 1009.69 1010.67 1011.57 1012.34 1012.96 1013.45 1013.83 1014.10 1014.30 1014.40 1014.40 1014.29 1014.05 1013.68 1013.21 1012.65 1012.05 1011.43 1010.78 1010.08 1009.31 1008.40 1007.32 1006.05 1004.66 1003.22 1001.87 1000.76 1000.05 999.87 1000.28 1001.28 1002.76
1010.01 1010.25 1010.49 1010.63 1010.56 1010.22 1009.62 1008.81 1007.91 1007.06 1006.40 1006.06 1006.08 1006.48 1007.19 1008.12 1009.16 1010.19 1011.12 1011.92 1012.56 1013.07 1013.47 1013.79 1014.04 1014.21 1014.29 1014.24 1014.05 1013.70 1013.21 1012.62 1011.96 1011.27 1010.57 1009.84 1009.07 1008.19 1007.17 1005.99 1004.67 1003.29 1001.97 1000.84 1000.08 999.80 1000.09 1000.96 1002.34
1009.96 1010.34 1010.69 1010.88 1010.80 1010.40 1009.69 1008.74 1007.69 1006.71 1005.96 1005.55 1005.55 1005.95 1006.69 1007.66 1008.73 1009.78 1010.72 1011.51 1012.15 1012.65 1013.06 1013.41 1013.72 1013.96 1014.12 1014.15 1014.01 1013.70 1013.23 1012.62 1011.93 1011.21 1010.48 1009.75 1009.00 1008.18 1007.25 1006.17 1004.95 1003.65 1002.37 1001.24 1000.40 1000.01 1000.14 1000.84 1002.04
1010.03 1010.54 1010.98 1011.21 1011.11 1010.64 1009.81 1008.73 1007.54 1006.44 1005.60 1005.14 1005.12 1005.53 1006.30 1007.29 1008.38 1009.43 1010.36 1011.12 1011.73 1012.21 1012.62 1012.99 1013.33 1013.64 1013.88 1013.99 1013.93 1013.69 1013.25 1012.66 1011.97 1011.24 1010.51 1009.80 1009.09 1008.34 1007.51 1006.54 1005.44 1004.22 1002.99 1001.85 1000.95 1000.42 1000.37 1000.86 1001.84
1010.16 1010.79 1011.30 1011.53 1011.40 1010.84 1009.89 1008.68 1007.38 1006.18 1005.27 1004.77 1004.74 1005.16 1005.95 1006.96 1008.05 1009.09 1010.00 1010.73 1011.30 1011.76 1012.15 1012.53 1012.91 1013.28 1013.59 1013.78 1013.81 1013.64 1013.27 1012.72 1012.06 1011.35 1010.65 1009.97 1009.31 1008.64 1007.89 1007.04 1006.03 1004.91 1003.72 1002.57 1001.61 1000.95 1000.71 1000.97 1001.72
1010.33 1011.03 1011.56 1011.78 1011.57 1010.92 1009.86 1008.54 1007.14 1005.86 1004.90 1004.38 1004.35 1004.79 1005.59 1006.61 1007.71 1008.74 1009.62 1010.32 1010.86 1011.29 1011.67 1012.06 1012.47 1012.88 1013.26 1013.53 1013.65 1013.56 1013.26 1012.78 1012.18 1011.51 1010.84 1010.20 1009.59 1008.98 1008.32 1007.55 1006.64 1005.59 1004.45 1003.31 1002.28 1001.51 1001.11 1001.15 1001.66
1010.52 1011.23 1011.74 1011.89 1011.60 1010.84 1009.69 1008.27 1006.79 1005.47 1004.48 1003.96 1003.93 1004.38 1005.19 1006.22 1007.32 1008.34 1009.21 1009.89 1010.41 1010.83 1011.21 1011.61 1012.04 1012.50 1012.93 1013.28 1013.47 1013.46 1013.24 1012.83 1012.28 1011.67 1011.04 1010.44 1009.88 1009.32 1008.72 1008.02 1007.18 1006.19 1005.10 1003.97 1002.91 1002.05 1001.51 1001.36 1001.65
1010.73 1011.38 1011.81 1011.87 1011.47 1010.61 1009.37 1007.89 1006.37 1005.02 1004.03 1003.51 1003.50 1003.95 1004.76 1005.80 1006.88 1007.90 1008.76 1009.44 1009.97 1010.39 1010.79 1011.20 1011.66 1012.15 1012.63 1013.03 1013.28 1013.34 1013.20 1012.85 1012.37 1011.80 1011.22 1010.65 1010.12 1009.59 1009.03 1008.38 1007.59 1006.66 1005.62 1004.51 1003.45 1002.54 1001.89 1001.60 1001.71
1010.95 1011.49 1011.79 1011.71 1011.20 1010.25 1008.94 1007.42 1005.89 1004.56 1003.58 1003.08 1003.07 1003.52 1004.33 1005.34 1006.41 1007.42 1008.28 1008.98 1009.53 1009.98 1010.41 1010.85 1011.35 1011.87 1012.38 1012.82 1013.12 1013.23 1013.14 1012.86 1012.43 1011.91 1011.36 1010.82 1010.30 1009.79 1009.25 1008.63 1007.89 1007.01 1006.01 1004.95 1003.91 1002.98 1002.28 1001.88 1001.84
1011.18 1011.54 1011.67 1011.45 1010.81 1009.78 1008.43 1006.92 1005.41 1004.11 1003.17 1002.69 1002.69 1003.13 1003.91 1004.88 1005.93 1006.92 1007.79 1008.51 1009.09 1009.60 1010.07 1010.57 1011.10 1011.65 1012.19 1012.65 1012.98 1013.13 1013.08 1012.84 1012.46 1011.98 1011.46 1010.94 1010.44 1009.93 1009.40 1008.80 1008.10 1007.27 1006.33 1005.33 1004.32 1003.42 1002.69 1002.23 1002.08
1011.37 1011.53 1011.45 1011.07 1010.32 1009.22 1007.86 1006.38 1004.94 1003.71 1002.83 1002.37 1002.37 1002.78 1003.51 1004.44 1005.43 1006.40 1007.27 1008.02 1008.66 1009.23 1009.77 1010.33 1010.91 1011.50 1012.06 1012.53 1012.88 1013.04 1013.02 1012.82 1012.48 1012.04 1011.55 1011.05 1010.56 1010.06 1009.55 1008.96 1008.29 1007.52 1006.64 1005.70 1004.76 1003.89 1003.17 1002.67 1002.44
1011.46 1011.38 1011.10 1010.55 1009.70 1008.56 1007.23 1005.81 1004.46 1003.32 1002.51 1002.10 1002.10 1002.47 1003.14 1004.00 1004.94 1005.87 1006.74 1007.52 1008.22 1008.86 1009.49 1010.11 1010.75 1011.38 1011.96 1012.45 1012.80 1012.98 1012.98 1012.81 1012.50 1012.10 1011.64 1011.17 1010.70 1010.23 1009.73 1009.17 1008.54 1007.81 1007.00 1006.14 1005.26 1004.44 1003.74 1003.21 1002.91
Thickness
5690 5696 5700 5695 5682 5679 5686 5703 5717 5721 5726 5735 5739 5738 5732 5728 5725 5716 5732 5744 5745 5744 5741 5739 5738 5737 5736 5734 5733 5732 5731 5729 5728 5728 5727 5726 5726 5725 5725 5724 5724 5723 5722 5721 5719 5718 5717 5716 5715
5683 5689 5688 5681 5670 5668 5684 5702 5708 5716 5722 5729 5731 5730 5726 5725 5729 5727 5731 5737 5740 5739 5738 5736 5734 5732 5731 5730 5729 5728 5727 5726 5724 5724 5723 5723 5722 5722 5721 5720 5720 5719 5718 5717 5716 5714 5713 5712 5711
5677 5681 5673 5669 5668 5671 5683 5700 5706 5714 5719 5720 5719 5721 5718 5716 5722 5723 5729 5734 5735 5734 5733 5731 5730 5728 5727 5726 5725 5724 5723 5721 5720 5719 5719 5718 5718 5718 5717 5716 5716 5715 5714 5713 5712 5710 5709 5708 5707
5669 5667 5664 5659 5664 5679 5687 5695 5700 5704 5708 5712 5710 5707 5710 5715 5717 5720 5726 5728 5728 5727 5726 5725 5725 5724 5723 5722 5720 5719 5718 5717 5716 5715 5714 5714 5714 5713 5713 5712 5711 5710 5709 5709 5707 5706 5705 5704 5703
5661 5656 5649 5649 5661 5675 5686 5692 5694 5694 5697 5701 5702 5697 5696 5706 5713 5717 5719 5720 5720 5720 5719 5719 5719 5718 5718 5717 5716 5715 5714 5713 5712 5711 5710 5709 5709 5709 5708 5708 5707 5706 5705 5703 5702 5701 5700 5699 5698
5647 5648 5640 5642 5656 5669 5678 5685 5686 5687 5689 5693 5693 5689 5688 5699 5705 5708 5712 5712 5713 5713 5712 5711 5712 5712 5712 5712 5711 5710 5709 5708 5707 5706 5705 5705 5704 5704 5704 5703 5702 5701 5700 5699 5697 5696 5696 5694 5694
5637 5636 5636 5644 5650 5658 5669 5679 5677 5676 5679 5683 5687 5681 5683 5689 5696 5701 5703 5705 5705 5706 5705 5704 5705 5705 5705 5706 5705 5704 5704 5703 5702 5701 5700 5699 5699 5699 5698 5698 5697 5696 5695 5694 5693 5692 5691 5690 5689
5634 5631 5633 5639 5643 5649 5661 5668 5670 5669 5671 5680 5681 5673 5672 5679 5688 5693 5695 5696 5697 5697 5697 5697 5698 5698 5698 5699 5699 5698 5697 5697 5696 5695 5694 5694 5693 5693 5692 5692 5691 5691 5690 5688 5687 5686 5686 5685 5684
5629 5618 5622 5632 5637 5643 5654 5656 5661 5665 5665 5667 5668 5667 5669 5674 5680 5681 5683 5684 5686 5688 5689 5690 5691 5691 5691 5691 5691 5691 5691 5690 5690 5689 5688 5688 5688 5687 5686 5686 5685 5685 5684 5683 5682 5681 5680 5679 5679
5616 5609 5620 5629 5632 5636 5642 5645 5649 5651 5651 5652 5654 5659 5664 5666 5669 5669 5671 5673 5676 5678 5681 5683 5683 5684 5684 5685 5684 5684 5684 5683 5683 5683 5683 5683 5682 5682 5680 5680 5680 5679 5678 5677 5677 5676 5675 5674 5673
5610 5609 5617 5622 5625 5628 5631 5635 5641 5639 5637 5641 5643 5648 5653 5656 5659 5661 5663 5666 5668 5671 5673 5675 5677 5677 5677 5678 5678 5678 5677 5677 5677 5677 5677 5677 5676 5675 5674 5674 5673 5672 5672 5671 5671 5670 5670 5669 5668
5604 5607 5612 5614 5617 5619 5622 5626 5628 5629 5631 5638 5642 5645 5646 5646 5649 5652 5654 5657 5660 5662 5664 5667 5670 5670 5670 5671 5671 5671 5671 5671 5671 5671 5671 5671 5671 5669 5668 5667 5667 5666 5666 5665 5665 5665 5665 5664 5663
5598 5601 5605 5608 5610 5613 5615 5615 5617 5622 5629 5633 5636 5638 5638 5639 5642 5645 5648 5651 5653 5654 5657 5659 5662 5663 5663 5664 5664 5664 5665 5665 5665 5665 5664 5665 5664 5663 5662 5660 5660 5659 5659 5659 5659 5659 5659 5658 5657
5594 5595 5597 5601 5604 5606 5606 5610 5612 5619 5624 5625 5627 5628 5630 5632 5635 5636 5640 5643 5645 5647 5649 5651 5653 5655 5656 5657 5657 5658 5658 5658 5658 5658 5658 5658 5658 5657 5655 5654 5653 5652 5652 5652 5653 5653 5652 5651 5650
5588 5586 5589 5595 5598 5601 5599 5601 5607 5615 5618 5618 5621 5623 5624 5626 5628 5629 5632 5636 5638 5640 5642 5643 5645 5646 5648 5649 5649 5650 5650 5650 5651 5651 5651 5651 5651 5650 5648 5646 5645 5645 5645 5645 5645 5645 5644 5643 5643
5582 5580 5580 5592 5596 5596 5588 5591 5606 5611 5612 5612 5614 5616 5617 5619 5622 5624 5626 5629 5631 5632 5634 5635 5637 5638 5639 5641 5642 5642 5642 5643 5643 5644 5643 5643 5643 5642 5640 5638 5638 5638 5638 5637 5637 5637 5635 5635 5634
5573 5572 5578 5584 5590 5590 5585 5588 5600 5604 5604 5604 5606 5608 5610 5613 5616 5618 5620 5621 5622 5624 5626 5627 5628 5629 5631 5632 5633 5633 5633 5634 5635 5635 5635 5635 5634 5633 5632 5631 5630 5630 5630 5629 5630 5628 5627 5625 5625
5566 5569 5574 5576 5581 5580 5579 5584 5593 5595 5595 5596 5598 5600 5603 5605 5607 5610 5612 5613 5615 5616 5618 5618 5619 5620 5621 5623 5624 5624 5624 5625 5626 5626 5626 5626 5625 5624 5624 5623 5622 5622 5621 5621 5621 5620 5619 5617 5617
5564 5564 5564 5570 5574 5571 5572 5579 5587 5589 5588 5589 5590 5592 5595 5597 5599 5601 5602 5605 5606 5608 5609 5610 5611 5611 5612 5613 5614 5614 5615 5616 5617 5617 5618 5617 5616 5615 5615 5615 5614 5613 5613 5613 5613 5612 5610 5608 5607
5558 5555 5558 5564 5567 5565 5566 5574 5582 5583 5582 5584 5585 5585 5586 5587 5589 5591 5592 5594 5595 5597 5599 5601 5603 5604 5604 5605 5606 5607 5607 5608 5608 5608 5608 5607 5607 5607 5606 5606 5606 5605 5604 5604 5604 5603 5601 5599 5598
5552 5549 5550 5551 5555 5559 5557 5565 5577 5580 5580 5582 5582 5580 5580 5579 5580 5581 5582 5583 5584 5586 5588 5591 5593 5594 5596 5597 5598 5597 5597 5597 5597 5598 5598 5598 5597 5597 5597 5597 5596 5596 5595 5594 5594 5595 5593 5590 5589
5542 5548 5547 5543 5537 5540 5550 5541 5569 5571 5570 5571 5570 5569 5570 5571 5572 5572 5572 5573 5574 5576 5577 5579 5582 5584 5586 5587 5588 5588 5588 5588 5589 5589 5589 5589 5588 5588 5588 5588 5588 5588 5587 5586 5585 5585 5584 5583 5580
5537 5541 5539 5537 5531 5528 5539 5532 5555 5564 5560 5560 5560 5560 5561 5560 5562 5563 5563 5564 5565 5566 5566 5567 5570 5573 5576 5577 5578 5579 5579 5580 5580 5580 5579 5580 5579 5579 5578 5578 5578 5578 5577 5577 5576 5576 5575 5574 5573
5534 5533 5533 5530 5523 5517 5537 5533 5542 5552 5555 5554 5555 5554 5553 5552 5552 5552 5553 5553 5554 5555 5555 5556 5558 5562 5565 5567 5568 5569 5570 5570 5571 5570 5570 5570 5570 5569 5569 5568 5568 5568 5568 5567 5567 5566 5565 5565 5564
5525 5516 5513 5513 5511 5521 5543 5536 5538 5550 5550 5548 5546 5546 5546 5544 5542 5541 5541 5541 5541 5543 5544 5546 5548 5550 5553 5556 5557 5558 5560 5560 5562 5562 5561 5560 5560 5560 5559 5559 5559 5558 5558 5557 5557 5556 5556 5555 5554
5518 5514 5504 5506 5512 5524 5534 5529 5539 5545 5541 5540 5539 5537 5535 5534 5532 5532 5532 5531 5531 5532 5534 5535 5536 5539 5542 5544 5546 5548 5549 5551 5551 5552 5552 5551 5551 5551 5550 5549 5549 5548 5547 5547 5547 5546 5546 5545 5544
5513 5509 5512 5502 5503 5502 5516 5532 5536 5537 5532 5530 5529 5528 5525 5524 5523 5522 5522 5522 5522 5522 5523 5525 5526 5528 5530 5532 5535 5537 5539 5540 5541 5542 5542 5542 5541 5540 5540 5539 5538 5537 5537 5537 5537 5537 5536 5535 5534
5507 5506 5499 5495 5495 5501 5520 5527 5523 5522 5520 5519 5518 5516 5515 5515 5514 5513 5513 5514 5513 5512 5513 5514 5515 5518 5520 5523 5525 5527 5527 5529 5530 5531 5532 5531 5531 5531 5530 5529 5528 5528 5527 5526 5527 5527 5525 5525 5523
5499 5497 5494 5493 5493 5493 5498 5511 5520 5515 5514 5510 5508 5507 5506 5506 5505 5504 5503 5504 5503 5502 5502 5503 5505 5508 5511 5513 5514 5515 5516 5518 5519 5520 5521 5521 5521 5520 5520 5519 5518 5518 5517 5516 5516 5516 5515 5514 5513
5499 5497 5489 5481 5484 5488 5486 5497 5515 5511 5507 5503 5499 5498 5498 5496 5495 5495 5494 5494 5494 5493 5493 5494 5495 5497 5500 5502 5503 5505 5507 5508 5507 5509 5510 5510 5510 5509 5509 5508 5508 5507 5507 5506 5505 5505 5504 5503 5502